Regional Weather Roundup
Issued by NWS

Home | Current Version | Previous Version | Text Only | Print | Product List | Glossary On
Versions: 1 2 3 4 5 6 7 8 9 10 11 12 13 14 15 16 17 18 19 20 21 22 23 24 25 26 27 28 29 30 31 32 33 34 35 36 37 38 39 40 41 42 43 44 45 46 47 48 49 50
000
ASUS43 KOAX 011602
RWRNE

WEATHER ROUNDUP FOR NEBRASKA
NATIONAL WEATHER SERVICE OMAHA NE
1100 AM CDT FRI AUG 01 2014

NOTES: SATELLITE DATA IS BEING USED TO AUGMENT CLOUD COVER ABOVE
       12000 FEET.
       "FAIR" INDICATES FEW OR NO CLOUDS BELOW 12,000 FEET WITH NO
       SIGNIFICANT WEATHER AND/OR OBSTRUCTIONS TO VISIBILITY.

  * THESE STATIONS DO NOT REPORT WEATHER SUCH AS RAIN...SNOW OR FOG.

NEZ001>004-019>022-054>056-011700-
NEBRASKA PANHANDLE

CITY           SKY/WX    TMP DP  RH WIND       PRES   REMARKS
SCOTTSBLUFF    SUNNY     77  53  43 CALM      30.21S
ALLIANCE       SUNNY     81  46  29 SW5       30.20S
CHADRON        SUNNY     85  48  27 SW9       30.13F
KIMBALL        SUNNY     75  49  38 N3        30.25S
SIDNEY         SUNNY     81  44  27 VRB3      30.24S
$$

NEZ057>060-069>072-079>082-011700-
SOUTHWEST NEBRASKA

CITY           SKY/WX    TMP DP  RH WIND       PRES   REMARKS
NORTH PLATTE   SUNNY     76  57  51 CALM      30.16S
IMPERIAL       SUNNY     82  52  35 VRB3      30.17S
LEXINGTON      SUNNY     78  62  57 CALM      30.14S
MCCOOK         SUNNY     77  57  50 VRB5      30.15S
OGALLALA       SUNNY     78  56  46 CALM      30.17S
$$

NEZ005>010-023>029-035>040-094-011700-
NORTH CENTRAL NEBRASKA

CITY           SKY/WX    TMP DP  RH WIND       PRES   REMARKS
VALENTINE      SUNNY     80  54  40 VRB3      30.13S
AINSWORTH      SUNNY     79  54  42 S7        30.14S
BROKEN BOW     SUNNY     77  60  55 CALM      30.15S
O`NEILL        SUNNY     77  62  59 E6        30.14R
ORD            SUNNY     76  60  57 S3        30.13S
THEDFORD       SUNNY     80  55  42 CALM      30.16R
$$

NEZ041-046>049-061>064-073>077-083>087-011700-
SOUTH CENTRAL NEBRASKA

CITY           SKY/WX    TMP DP  RH WIND       PRES   REMARKS
GRAND ISLAND   SUNNY     76  61  59 N10       30.12S
AURORA         SUNNY     75  62  65 N9        30.11S
HASTINGS       SUNNY     77  59  53 N12       30.12R
HEBRON         SUNNY     76  57  52 N10       30.08R
HOLDREGE       SUNNY     75  62  62 NE5       30.14R
KEARNEY *      SUNNY     75  61  60 N8        30.13S
YORK           SUNNY     73  64  73 N10G16    30.10S
$$

NEZ011>018-030>034-042>045-011700-
NORTHEAST NEBRASKA

CITY           SKY/WX    TMP DP  RH WIND       PRES   REMARKS
NORFOLK        SUNNY     75  60  59 NE6       30.12R
ALBION         SUNNY     74  61  63 NE6       30.12R
BLAIR          PTSUNNY   73  61  66 NE5       30.10R
COLUMBUS *     SUNNY     54 N/A N/A NE9       30.11S
FREMONT        SUNNY     76  62  61 E6        30.11R
TEKAMAH        CLOUDY    76  63  64 N5        30.10R
WAYNE          SUNNY     74  62  66 SE5       30.12R
$$

NEZ050>053-065>068-078-088>093-011700-
SOUTHEAST NEBRASKA

CITY           SKY/WX    TMP DP  RH WIND       PRES   REMARKS
LINCOLN        SUNNY     77  60  55 NE9       30.08S
OMAHA EPPLEY   PTSUNNY   76  62  62 VRB5      30.09S
BEATRICE       SUNNY     74  62  65 E6        30.06R
FALLS CITY     CLOUDY    78  64  61 SE12      30.06R HAZE
NEBRASKA CITY  MOSUNNY   74  62  64 SE9       30.08R
PLATTSMOUTH    MOSUNNY   76  63  65 SE5       30.08S
$$

NEZ044-045-051>053-067-011700-
OMAHA AREA

CITY           SKY/WX    TMP DP  RH WIND       PRES   REMARKS
OMAHA EPPLEY   PTSUNNY   76  62  62 VRB5      30.09S
BLAIR          PTSUNNY   73  61  66 NE5       30.10R
FREMONT        SUNNY     76  62  61 E6        30.11R
MILLARD        SUNNY     77  62  61 E6        30.08S
OFFUTT AFB     MOSUNNY   77  64  63 E7        30.08S
PLATTSMOUTH    MOSUNNY   76  63  65 SE5       30.08S
WAHOO          FAIR      75  62  63 E5        30.09R
$$


USA.gov is the U.S. government's official web portal to all federal, state and local government web resources and services.